Terug naar catalogus

ATLAS 5 CENTAUR DEB

ActiefHEO
NORAD 46656·DEBRIS·🇺🇸 United States

Gelanceerd Oct 17, 2018 vanaf Cape Canaveral Space Force Station

Loading…

Volgende Passages (komende 24 uur)

TLE

VersSource: Space-Track

Epoch: Sep 12, 2026, 12:12 UTC

1 46656U 18079CJ  26255.50880653 -.00000160  00000-0  00000-0 0  9995
2 46656  13.5637 351.3816 4543297  45.1709 343.7310  1.96956069 42672

Volg ATLAS 5 CENTAUR DEB in realtime met AllMySat

Download on the App Store